Regional Weather Roundup
Issued by NWS

Home | Current Version | Previous Version | Text Only | Print | Product List | Glossary On
Versions: 1 2 3 4 5 6 7 8 9 10 11 12 13 14 15 16 17 18 19 20 21 22 23 24 25 26 27 28 29 30 31 32 33 34 35 36 37 38 39 40 41 42 43 44 45 46 47 48 49 50
831
ASUS44 KJAN 231803
RWRMS

MISSISSIPPI HOURLY WEATHER ROUNDUP
NATIONAL WEATHER SERVICE JACKSON MS
1200 PM CST SUN NOV 23 2014

NOTE: "FAIR: INDICATES FEW OR NO CLOUDS BELOW 12,000 FEET WITH NO
SIGNIFICANT WEATHER AND/OR OBSTRUCTIONS TO VISIBILITY.

MSZ001>002-007>008-010>013-018>021-025>028-034>036-231900-
NORTHWEST MISSISSIPPI

CITY           SKY/WX    TMP DP  RH WIND       PRES   REMARKS
CLARKSDALE     CLOUDY    59  59 100 SW6       29.47F
CLEVELAND      CLOUDY    62  62 100 SE13      29.41F
GREENWOOD      LGT RAIN  65  62  90 SE16      29.47F
6HR MIN TEMP:  59; 6HR MAX TEMP:  65; 6HR PCP:  0.19;

GREENVILLE     CLOUDY    65  62  90 SE17G29   29.38F
6HR MIN TEMP:  60; 6HR MAX TEMP:  65;

GRENADA        CLOUDY    61  61 100 SE8       29.49F
OLIVE BRANCH   RAIN      57  57 100 SE8       29.48F FOG
OXFORD         PTSUNNY   57  57 100 SE13G18   29.49F
TUNICA         RAIN      59  57  94 E9        29.46F
$$

MSZ003>006-009-014>017-022>024-029>033-037>039-231900-
NORTHEAST MISSISSIPPI

CITY           SKY/WX    TMP DP  RH WIND       PRES   REMARKS
COLUMBUS AFB   LGT RAIN  62  62 100 SE14      29.51F
6HR MIN TEMP:  58; 6HR MAX TEMP:  62; 6HR PCP:  0.31;

CORINTH        LGT RAIN  61  57  88 SE8       29.54F
GOLDN TRIANGLE RAIN      63  61  94 SW14      29.54F FOG
STARKVILLE     CLOUDY    61  61 100 S7        29.53F
TUPELO         LGT RAIN  61  59  93 E6        29.51F FOG
6HR MIN TEMP:  58; 6HR MAX TEMP:  61; 6HR PCP:  0.31;

$$

MSZ040-058-231900-
CENTRAL MISSISSIPPI

CITY           SKY/WX    TMP DP  RH WIND       PRES   REMARKS
JACKSON INTL   PTSUNNY   69  61  75 S21G35    29.53F
6HR MIN TEMP:  61; 6HR MAX TEMP:  69; 6HR PCP:  0.34;

JACKSON HAWKNS CLOUDY    68  59  73 S26G36    29.53F
6HR MIN TEMP:  61; 6HR MAX TEMP:  69; 6HR PCP:  0.22;

MERIDIAN KEY   LGT RAIN  66  63  90 S18G24    29.56F
6HR MIN TEMP:  58; 6HR MAX TEMP:  67; 6HR PCP:  0.36;

MERIDIAN NAS   LGT RAIN  66  63  90 S9        29.55F
6HR MIN TEMP:  57; 6HR MAX TEMP:  67; 6HR PCP:  0.38;

RAYMOND        MOCLDY    68  63  83 S17       29.53F
VICKSBURG      CLOUDY    65  61  87 S12G23    29.52F
6HR MIN TEMP:  61; 6HR MAX TEMP:  66; 6HR PCP:  0.18;

$$

MSZ059>079-231900-
SOUTH MISSISSIPPI

CITY           SKY/WX    TMP DP  RH WIND       PRES   REMARKS
BROOKHAVEN     CLOUDY    64  59  82 S15G26    29.61F
HATTIESBURG    CLOUDY    68  60  75 SW21G33   29.63R
6HR MIN TEMP:  60; 6HR MAX TEMP:  69; 6HR PCP:  0.41;

MCCOMB         CLOUDY    66  58  75 SW13G23   29.62F
6HR MIN TEMP:  62; 6HR MAX TEMP:  66; 6HR PCP:  0.15;

NATCHEZ        CLOUDY    66  57  72 SW10G18   29.57F
6HR MIN TEMP:  63; 6HR MAX TEMP:  66; 6HR PCP:  0.07;

PINE BELT      CLOUDY    66  61  82 SW12G17   29.63R
6HR MIN TEMP:  59; 6HR MAX TEMP:  66; 6HR PCP:  0.42;

$$

MSZ080>082-231900-
COASTAL MISSISSIPPI

CITY           SKY/WX    TMP DP  RH WIND       PRES   REMARKS
BAY ST LOUIS   MOSUNNY   66  57  72 MISG      29.69F
BILOXI         CLOUDY    62  61  96 SW21      29.68F
6HR MIN TEMP:  61; 6HR MAX TEMP:  70; 6HR PCP:  0.23;

PASCAGOULA     LGT RAIN  62  59  90 S9        29.68F
6HR MIN TEMP:  62; 6HR MAX TEMP:  74; 6HR PCP:  0.02;

GULFPORT       CLOUDY    62  59  90 S13G21    29.68F
6HR MIN TEMP:  61; 6HR MAX TEMP:  70; 6HR PCP:  1.08;

$$



USA.gov is the U.S. government's official web portal to all federal, state and local government web resources and services.